User: anonymous
Location: Caltech
(34.1382°N, 118.1253°W)
Time: 04:33:09
(UTC-07:00)
Language:

SO-50 - Orbit

View from above orbital plane
View from above orbital plane
View from above satellite
View from above satellite

Ground track
Ground track

The orbit data is extracted from the following two-line orbital elements,

1 27607U 02058C   14244.48836676  .00000305  00000-0  66349-4 0  4883
2 27607 064.5584 359.7304 0057086 349.8113 010.1826 14.73879953628721
Epoch (UTC): 01 September 2014 11:43:14
Eccentricity: 0.0057086
inclination: 64.5584°
perigee height: 608 km
apogee height: 689 km
right ascension of ascending node: 359.7304°
argument of perigee: 349.8113°
revolutions per day: 14.73879953
mean anomaly at epoch: 10.1826°
orbit number at epoch: 62872

The dashed part of the orbit path shows where the satellite is in the earth's shadow,  

DLR